星链-35187(STARLINK-35187)

导读 | 豆包AI

STARLINK-35187是美国SpaceX星链星座的卫星,于2025年9月6日发射。星链星座旨在构建全球卫星互联网,为全球偏远地区、海陆空交通及网络未覆盖区域提供高速低延迟宽带服务。该卫星延续星链星座设计,运行于近地轨道,是美国持续扩展星链规模的组成部分,助力完善全球卫星互联网覆盖布局。

基本信息
目录编号:
65521
目录名称:
STARLINK-35187
国际标识:
2025-200B
轨道中心:
EARTH
卫星名称:
星链-35187
卫星全名:
星链-35187(STARLINK-35187)
卫星状态:
在轨 (已飞行210 天)
发射日期:
2025-09-06 UTC
国别 :
美国 (US)
星等 :
--
轨道信息
数据来源 国际轨道数据
星历时间: 2026-04-04T02:01:39+0800
17小时前
查看轨道信息
半长轴: 6927.677km
偏心率: 0.0000571
轨道倾角: 97.603°
近地点辐角 219.603°
升交点赤经 164.531°
平近点角 140.515°
近地点: 549.144km
远地点: 549.936km
周期: 95.640分钟
每日圈数: 15.056407
详细信息
固有亮度:
5
最大亮度:
2.5
卫星平台:
Starlink V1.0
覆盖范围:
全球
运营商:
太空探索技术公司
运营商所在国:
美国
制造商(研发单位):
太空探索技术公司
制造商所在国:
美国
使用方式:
暂无
卫星简介
Starlink 计划是 SpaceX 推出的全球卫星互联网项目,通过发射低轨道卫星,为全球尤其是偏远地区提供高速、低延迟的互联网服务。自 2019 年起,Starlink 已部署数千颗卫星,旨在缩小全球数字鸿沟,推动互联网普及。该项目还为军事、航空等行业提供通信支持,带来广泛经济效益。
2D轨道图
3D轨道图
轨道高度分析图
轨道倾角分析图
轨道综合分析图
查看轨道综合分析图